• In Latvia
  • List of Countries
  • For 7 days
  • Water Temperature
  • Satellite Maps
  • Weather Map
  • Weather Widgets
  • user-avatar
    Login

    Hourly Weather Krizhopol

    Today, 17 October, Wednesday

    Time Temperature Precipitation Wind Pressure Humidity
    00:00 +15°C° 0 mm 2 mps 744 mmHg 60%
    01:00 +15°C° 0 mm 2 mps 743 mmHg 62%
    02:00 +15°C° 0 mm 2 mps 743 mmHg 63%
    03:00 +14°C° 0 mm 2 mps 743 mmHg 65%
    04:00 +14°C° 0 mm 2 mps 743 mmHg 67%
    05:00 +13°C° 0 mm 2 mps 743 mmHg 69%
    06:00 +14°C° 0 mm 2 mps 743 mmHg 68%
    07:00 +14°C° 0 mm 2 mps 743 mmHg 68%
    08:00 +15°C° 0 mm 2 mps 744 mmHg 67%
    09:00 +17°C° 0 mm 2 mps 744 mmHg 60%
    10:00 +19°C° 0 mm 2 mps 744 mmHg 52%
    11:00 +21°C° 0 mm 3 mps 744 mmHg 45%
    12:00 +22°C° 0 mm 3 mps 743 mmHg 42%
    13:00 +22°C° 0 mm 3 mps 743 mmHg 39%
    14:00 +24°C° 0 mm 3 mps 743 mmHg 35%
    15:00 +22°C° 0 mm 3 mps 743 mmHg 39%
    16:00 +21°C° 0 mm 3 mps 742 mmHg 42%
    17:00 +19°C° 0 mm 2 mps 742 mmHg 45%
    18:00 +18°C° 0 mm 2 mps 742 mmHg 48%
    19:00 +17°C° 0 mm 2 mps 742 mmHg 51%
    20:00 +16°C° 0 mm 2 mps 742 mmHg 53%
    21:00 +16°C° 0 mm 2 mps 742 mmHg 55%
    22:00 +15°C° 0 mm 2 mps 742 mmHg 57%
    23:00 +15°C° 0 mm 2 mps 742 mmHg 59%

    Tomorrow, 18 October, Thursday

    Time Temperature Precipitation Wind Pressure Humidity
    00:00 +14°C° 0 mm 2 mps 742 mmHg 60%
    01:00 +14°C° 0 mm 2 mps 742 mmHg 61%
    02:00 +14°C° 0 mm 2 mps 742 mmHg 63%
    03:00 +13°C° 0 mm 2 mps 741 mmHg 64%
    04:00 +13°C° 0 mm 2 mps 741 mmHg 66%
    05:00 +12°C° 0 mm 2 mps 741 mmHg 67%
    06:00 +13°C° 0 mm 2 mps 741 mmHg 66%
    07:00 +13°C° 0 mm 2 mps 741 mmHg 64%
    08:00 +13°C° 0 mm 3 mps 741 mmHg 63%
    09:00 +16°C° 0 mm 3 mps 741 mmHg 56%
    10:00 +18°C° 0 mm 3 mps 741 mmHg 48%
    11:00 +20°C° 0 mm 4 mps 741 mmHg 41%
    12:00 +21°C° 0 mm 3 mps 741 mmHg 38%
    13:00 +21°C° 0 mm 3 mps 740 mmHg 35%
    14:00 +22°C° 0 mm 3 mps 740 mmHg 32%
    15:00 +21°C° 0 mm 3 mps 740 mmHg 35%
    16:00 +20°C° 0 mm 2 mps 739 mmHg 38%
    17:00 +18°C° 0 mm 2 mps 739 mmHg 41%
    18:00 +18°C° 0 mm 2 mps 739 mmHg 43%
    19:00 +17°C° 0 mm 2 mps 739 mmHg 45%
    20:00 +16°C° 0 mm 1 mps 739 mmHg 47%
    21:00 +15°C° 0 mm 1 mps 739 mmHg 48%
    22:00 +15°C° 0 mm 1 mps 739 mmHg 50%
    23:00 +14°C° 0 mm 1 mps 739 mmHg 51%

    Day after tomorrow, 19 October, Friday

    Time Temperature Precipitation Wind Pressure Humidity
    00:00 +14°C° 0 mm 1 mps 738 mmHg 53%
    01:00 +13°C° 0 mm 1 mps 738 mmHg 54%
    02:00 +13°C° 0 mm 1 mps 738 mmHg 55%
    03:00 +13°C° 0 mm 1 mps 738 mmHg 56%
    04:00 +13°C° 0 mm 1 mps 738 mmHg 56%
    05:00 +13°C° 0 mm 1 mps 737 mmHg 57%
    06:00 +13°C° 0 mm 1 mps 738 mmHg 56%
    07:00 +14°C° 0 mm 1 mps 738 mmHg 56%
    08:00 +14°C° 0 mm 1 mps 738 mmHg 55%
    09:00 +16°C° 0 mm 1 mps 738 mmHg 51%
    10:00 +18°C° 0 mm 1 mps 738 mmHg 47%
    11:00 +19°C° 0 mm 1 mps 738 mmHg 42%
    12:00 +20°C° 0 mm 1 mps 738 mmHg 40%
    13:00 +20°C° 0 mm 2 mps 738 mmHg 38%
    14:00 +20°C° 0 mm 2 mps 737 mmHg 37%
    15:00 +19°C° 0 mm 2 mps 737 mmHg 40%
    16:00 +18°C° 0 mm 2 mps 737 mmHg 44%
    17:00 +17°C° 0 mm 2 mps 737 mmHg 47%
    18:00 +16°C° 0 mm 2 mps 737 mmHg 50%
    19:00 +16°C° 0 mm 2 mps 737 mmHg 54%
    20:00 +15°C° 0 mm 2 mps 737 mmHg 57%
    21:00 +14°C° 0 mm 2 mps 738 mmHg 59%
    22:00 +14°C° 0 mm 2 mps 738 mmHg 62%
    23:00 +13°C° 0 mm 2 mps 738 mmHg 64%

    20 October, Saturday

    Time Temperature Precipitation Wind Pressure Humidity
    00:00 +13°C° 0 mm 2 mps 738 mmHg 67%
    01:00 +12°C° 0 mm 2 mps 738 mmHg 69%
    02:00 +12°C° 0 mm 2 mps 738 mmHg 72%
    03:00 +12°C° 0 mm 2 mps 738 mmHg 74%
    04:00 +10°C° 0 mm 2 mps 738 mmHg 77%
    05:00 +10°C° 0 mm 2 mps 738 mmHg 79%
    06:00 +10°C° 0 mm 3 mps 738 mmHg 78%
    07:00 +11°C° 0 mm 3 mps 739 mmHg 77%
    08:00 +11°C° 0 mm 3 mps 739 mmHg 75%
    09:00 +13°C° 0 mm 4 mps 739 mmHg 70%
    10:00 +15°C° 0 mm 4 mps 740 mmHg 64%
    11:00 +17°C° 0 mm 4 mps 740 mmHg 58%
    12:00 +18°C° 0 mm 4 mps 740 mmHg 56%
    13:00 +17°C° 0 mm 5 mps 740 mmHg 55%
    14:00 +19°C° 0 mm 5 mps 740 mmHg 53%
    15:00 +17°C° 0 mm 5 mps 740 mmHg 58%
    16:00 +16°C° 0 mm 5 mps 740 mmHg 63%
    17:00 +14°C° 0 mm 5 mps 740 mmHg 68%
    18:00 +13°C° 0 mm 5 mps 741 mmHg 73%
    19:00 +12°C° 0 mm 5 mps 741 mmHg 77%
    20:00 +10°C° 0 mm 5 mps 741 mmHg 81%
    21:00 +10°C° 0 mm 5 mps 741 mmHg 81%
    22:00 +11°C° 0 mm 4 mps 741 mmHg 81%
    23:00 +11°C° 0 mm 4 mps 741 mmHg 80%

    21 October, Sunday

    Time Temperature Precipitation Wind Pressure Humidity
    00:00 +10°C° 0 mm 4 mps 741 mmHg 78%
    01:00 +10°C° 0 mm 4 mps 742 mmHg 75%
    02:00 +10°C° 0 mm 4 mps 742 mmHg 72%
    03:00 +8°C° 0 mm 4 mps 742 mmHg 69%
    04:00 +8°C° 0 mm 5 mps 742 mmHg 66%
    05:00 +7°C° 0 mm 5 mps 742 mmHg 63%
    06:00 +7°C° 0 mm 5 mps 742 mmHg 61%
    07:00 +8°C° 0 mm 5 mps 742 mmHg 60%
    08:00 +8°C° 0 mm 5 mps 742 mmHg 58%
    09:00 +8°C° 0 mm 6 mps 742 mmHg 54%
    10:00 +9°C° 0 mm 6 mps 743 mmHg 50%
    11:00 +10°C° 0 mm 6 mps 743 mmHg 45%
    12:00 +11°C° 0 mm 6 mps 742 mmHg 44%
    13:00 +11°C° 0 mm 6 mps 742 mmHg 42%
    14:00 +11°C° 0 mm 6 mps 742 mmHg 40%
    15:00 +10°C° 0 mm 5 mps 742 mmHg 43%
    16:00 +10°C° 0 mm 5 mps 742 mmHg 46%
    17:00 +10°C° 0 mm 4 mps 742 mmHg 49%
    18:00 +8°C° 0 mm 4 mps 742 mmHg 53%
    19:00 +7°C° 0 mm 4 mps 742 mmHg 57%
    20:00 +6°C° 0 mm 4 mps 743 mmHg 61%
    21:00 +6°C° 0 mm 4 mps 743 mmHg 64%
    22:00 +5°C° 0 mm 4 mps 743 mmHg 67%
    23:00 +5°C° 0 mm 3 mps 743 mmHg 70%

    22 October, Monday

    Time Temperature Precipitation Wind Pressure Humidity
    00:00 +4°C° 0 mm 3 mps 742 mmHg 72%
    01:00 +4°C° 0 mm 3 mps 742 mmHg 74%
    02:00 +3°C° 0 mm 3 mps 742 mmHg 76%
    03:00 +3°C° 0 mm 3 mps 742 mmHg 78%
    04:00 +3°C° 0 mm 3 mps 742 mmHg 80%
    05:00 +2°C° 0 mm 3 mps 742 mmHg 82%
    06:00 +3°C° 0 mm 3 mps 742 mmHg 80%
    07:00 +3°C° 0 mm 3 mps 742 mmHg 78%
    08:00 +4°C° 0 mm 4 mps 742 mmHg 76%
    09:00 +5°C° 0 mm 3 mps 742 mmHg 67%
    10:00 +8°C° 0 mm 3 mps 742 mmHg 59%
    11:00 +10°C° 0 mm 3 mps 742 mmHg 51%
    12:00 +11°C° 0 mm 3 mps 742 mmHg 47%
    13:00 +11°C° 0 mm 3 mps 742 mmHg 43%
    14:00 +12°C° 0 mm 3 mps 741 mmHg 39%
    15:00 +12°C° 0 mm 2 mps 741 mmHg 41%
    16:00 +10°C° 0 mm 2 mps 741 mmHg 44%
    17:00 +9°C° 0 mm 2 mps 741 mmHg 46%
    18:00 +9°C° 0 mm 2 mps 741 mmHg 49%
    19:00 +9°C° 0 mm 1 mps 741 mmHg 52%
    20:00 +8°C° 0 mm 1 mps 741 mmHg 55%
    21:00 +8°C° 0 mm 1 mps 740 mmHg 57%
    22:00 +7°C° 0 mm 1 mps 740 mmHg 59%
    23:00 +7°C° 0 mm 1 mps 740 mmHg 61%
    Show more